Location: Staunton
(38.1490°N, 79.0720°W)
Time: 14:23:10
(UTC-04:00)

ISS - Pass Details

Date: 14 July 2019
Orbit: 409 x 418 km, 51.6° (Epoch: 20 July)

Event Time Altitude Azimuth Distance (km) Brightness Sun altitude
Rises 04:59:10 0° 318° (NW) 2,341 0.0 -11.5°
Reaches altitude 10° 05:01:38 10° 336° (NNW) 1,476 -0.8 -11.1°
Maximum altitude 05:04:11 20° 26° (NNE) 1,005 -0.9 -10.7°
Drops below altitude 10° 05:06:44 10° 77° (ENE) 1,470 0.1 -10.3°
Sets 05:09:10 0° 95° (E) 2,328 0.8 -9.9°
